CW7218 Weather Reports


time (UTC)temp
F
wind
direction
speed
knots
gust
knots
rain 1hr
in
rain 24hr
in
rain mn
in
humidity
%
barometer
mb
20260510215019 54 90 3.5 7.0 0.00 0.00 0.00 79 1009.7
20260510214039 55 68 5.2 9.6 0.00 0.00 0.00 79 1009.7
20260510213019 54 68 8.7 12.2 0.00 0.00 0.00 80 1009.9
20260510212019 55 68 9.6 13.0 0.00 0.00 0.00 79 1010.1
20260510211019 55 68 3.5 7.8 0.00 0.00 0.00 79 1010.7
20260510210039 56 180 2.6 6.1 0.00 0.00 0.00 76 1010.5
20260510205019 56 338 0.9 3.5 0.00 0.00 0.00 75 1010.1
20260510204019 55 338 1.7 3.5 0.00 0.00 0.00 78 1010.2
20260510203019 55 113 2.6 5.2 0.00 0.00 0.00 79 1010.0
20260510202019 56 113 2.6 7.0 0.00 0.00 0.00 78 1009.7
20260510201018 56 68 3.5 7.0 0.00 0.00 0.00 78 1009.7
20260510200018 56 68 3.5 8.7 0.00 0.00 0.00 77 1009.8
20260510195018 59 248 3.5 10.4 0.00 0.00 0.00 69 1010.0
20260510194018 60 248 6.1 11.3 0.00 0.00 0.00 60 1009.8
20260510193019 59 248 7.8 14.8 0.00 0.00 0.00 63 1009.8
20260510192018 58 248 4.3 8.7 0.00 0.00 0.00 68 1009.7
20260510191039 58 203 7.0 12.2 0.00 0.00 0.00 71 1009.7
20260510190018 57 225 6.1 13.0 0.00 0.00 0.00 73 1009.7
20260510185018 57 203 6.1 11.3 0.00 0.01 0.00 73 1009.7
20260510184018 58 203 4.3 7.8 0.00 0.01 0.00 71 1009.6
20260510183018 59 203 4.3 9.6 0.00 0.01 0.00 68 1009.4
20260510182018 60 203 6.1 11.3 0.00 0.02 0.00 64 1009.2
20260510181018 61 203 8.7 16.5 0.00 0.02 0.00 58 1009.0
20260510180018 62 225 8.7 16.5 0.00 0.02 0.00 56 1009.1
20260510175019 62 248 7.8 14.8 0.00 0.04 0.00 55 1009.0
20260510174018 63 248 13.0 21.7 0.00 0.06 0.00 53 1008.9
20260510173038 64 225 13.0 21.7 0.00 0.08 0.00 51 1008.8
20260510172018 65 225 10.4 18.2 0.00 0.11 0.00 46 1008.4
20260510171018 66 225 10.4 19.1 0.00 0.14 0.00 46 1008.4
20260510170018 66 225 9.6 17.4 0.00 0.17 0.00 46 1008.2
20260510165018 66 225 8.7 17.4 0.00 0.20 0.00 44 1008.1
20260510164018 67 225 9.6 17.4 0.00 0.24 0.00 45 1008.1
20260510163018 67 203 12.2 20.9 0.00 0.27 0.00 43 1008.0
20260510162018 68 203 11.3 19.1 0.00 0.33 0.00 43 1008.1
20260510161018 68 203 8.7 18.2 0.00 0.46 0.00 44 1008.1
20260510160020 68 225 10.4 20.9 0.00 0.48 0.00 43 1008.0
20260510155020 68 203 9.6 17.4 0.00 0.48 0.00 42 1008.1
20260510154020 67 203 10.4 18.2 0.00 0.48 0.00 44 1008.2
20260510153040 68 225 9.6 19.1 0.00 0.48 0.00 44 1008.2
20260510152020 67 203 8.7 18.2 0.00 0.48 0.00 46 1008.4
20260510151019 67 203 8.7 16.5 0.00 0.48 0.00 46 1008.5
20260510150020 66 203 12.2 19.1 0.00 0.48 0.00 47 1008.6
20260510145020 67 203 10.4 19.1 0.00 0.48 0.00 46 1008.8
20260510144019 67 203 11.3 17.4 0.00 0.48 0.00 45 1009.0
20260510143059 66 203 13.0 20.0 0.00 0.48 0.00 46 1009.1
20260510142019 66 203 11.3 19.1 0.00 0.48 0.00 47 1009.2
20260510141020 66 203 11.3 20.0 0.00 0.48 0.00 50 1009.5
20260510140019 66 203 12.2 18.2 0.00 0.48 0.00 49 1009.7
20260510135019 66 203 13.0 20.0 0.00 0.48 0.00 50 1009.7
20260510134039 66 203 12.2 20.9 0.00 0.48 0.00 51 1009.8
20260510133039 66 203 11.3 18.2 0.00 0.48 0.00 53 1009.8
20260510132019 65 203 11.3 18.2 0.00 0.48 0.00 54 1010.0
20260510131019 65 203 10.4 17.4 0.00 0.48 0.00 56 1010.0
20260510130019 64 203 12.2 20.9 0.00 0.48 0.00 57 1010.0
20260510125019 65 203 12.2 25.2 0.00 0.48 0.00 58 1010.1
20260510124019 65 203 11.3 20.9 0.00 0.48 0.00 57 1010.3
20260510123019 64 203 11.3 18.2 0.00 0.48 0.00 59 1010.1
20260510122019 64 203 11.3 17.4 0.00 0.48 0.00 60 1010.4
20260510121019 64 203 10.4 19.1 0.00 0.48 0.00 59 1010.5
20260510120019 64 203 12.2 20.0 0.00 0.48 0.00 58 1010.4
20260510115039 64 203 11.3 19.1 0.00 0.48 0.00 56 1010.4
20260510114019 64 203 13.0 21.7 0.00 0.48 0.00 59 1010.6
20260510113019 65 203 10.4 19.1 0.00 0.48 0.00 58 1010.5
20260510112019 64 203 5.2 11.3 0.00 0.48 0.00 61 1010.8
20260510111019 64 158 3.5 6.1 0.00 0.48 0.00 63 1010.9
20260510110019 63 90 1.7 4.3 0.00 0.48 0.00 73 1010.8
20260510105019 62 135 1.7 6.1 0.00 0.48 0.00 75 1011.1
20260510104019 61 113 1.7 5.2 0.00 0.48 0.00 77 1011.1
20260510103019 60 158 1.7 4.3 0.00 0.48 0.00 78 1011.2
20260510102019 60 135 2.6 6.1 0.00 0.48 0.00 79 1011.3
20260510101019 59 135 1.7 4.3 0.00 0.48 0.00 81 1011.3
20260510100039 57 158 1.7 4.3 0.00 0.48 0.00 83 1011.2
20260510095019 56 203 0.9 3.5 0.00 0.48 0.00 85 1011.4
20260510094019 54 158 1.7 3.5 0.00 0.48 0.00 87 1011.3
20260510093019 54 158 2.6 4.3 0.00 0.48 0.00 88 1011.2
20260510092018 53 180 2.6 5.2 0.00 0.48 0.00 89 1011.1
20260510091019 53 180 1.7 4.3 0.00 0.48 0.00 87 1011.2
20260510090039 53 180 1.7 3.5 0.00 0.48 0.00 86 1011.2
20260510085019 53 135 0.9 2.6 0.00 0.48 0.00 86 1011.3
20260510084018 52 203 0.9 3.5 0.00 0.48 0.00 86 1011.2
20260510083018 52 135 0.9 2.6 0.00 0.48 0.00 87 1011.3
20260510082018 51 90 0.9 3.5 0.00 0.48 0.00 89 1011.3
20260510081019 50 180 1.7 3.5 0.00 0.48 0.00 90 1011.1
20260510080018 50 180 0.9 3.5 0.00 0.48 0.00 91 1011.1
20260510075019 50 158 1.7 3.5 0.00 0.48 0.00 90 1010.9
20260510074038 50 158 1.7 4.3 0.00 0.48 0.00 90 1011.0
20260510073018 50 158 1.7 3.5 0.00 0.48 0.00 89 1011.0
20260510072018 51 158 2.6 3.5 0.00 0.48 0.00 88 1010.9
20260510071018 50 158 1.7 3.5 0.00 0.48 0.00 88 1010.6
20260510070018 50 158 0.9 2.6 0.00 0.48 0.00 87 1010.5
20260510065018 51 225 0.9 2.6 0.00 0.48 0.00 86 1010.6
20260510064018 51 135 0.9 1.7 0.00 0.48 0.00 87 1010.5
20260510063038 51 158 0.9 1.7 0.00 0.48 0.00 86 1010.6
20260510062038 51 113 0.9 1.7 0.00 0.48 0.00 85 1010.5
20260510061018 50 113 0.9 1.7 0.00 0.48 0.00 87 1010.5
20260510060018 49 23 0.9 3.5 0.00 0.48 0.00 90 1010.3
20260510055018 48 45 2.6 3.5 0.00 0.48 0.00 89 1010.4
20260510054018 48 45 2.6 4.3 0.00 0.48 0.00 89 1010.0
20260510053018 48 68 1.7 4.3 0.00 0.48 0.00 89 1010.0
20260510052018 48 68 0.9 4.3 0.00 0.48 0.00 89 1009.9
20260510051018 48 68 1.7 4.3 0.00 0.48 0.00 90 1009.9
20260510050018 47 45 0.9 3.5 0.00 0.48 0.00 91 1009.9
20260510045018 47 0.0 0.0 0.00 0.48 0.00 90 1009.9
20260510044018 48 0.0 0.0 0.00 0.48 0.00 90 1010.1
20260510043018 48 0.0 0.0 0.00 0.48 0.00 90 1010.2
20260510042018 48 0.0 0.9 0.00 0.48 0.00 90 1010.2
20260510041018 48 90 0.9 4.3 0.00 0.48 0.00 91 1010.3
20260510040018 48 23 1.7 7.0 0.00 0.48 0.00 91 1010.5
20260510035038 47 23 4.3 9.6 0.00 0.48 0.00 91 1010.2
20260510034018 48 45 3.5 7.8 0.00 0.48 0.00 91 1010.5
20260510033018 48 45 5.2 8.7 0.00 0.48 0.00 92 1010.3
20260510032018 48 45 5.2 8.7 0.00 0.48 0.00 93 1010.5
20260510031018 48 45 4.3 7.8 0.00 0.48 0.00 92 1010.6
20260510030020 48 45 3.5 6.1 0.00 0.48 0.00 91 1010.6
20260510025040 48 23 3.5 6.1 0.00 0.48 0.00 90 1010.9
20260510024019 48 23 3.5 6.1 0.00 0.48 0.00 89 1010.9
20260510023019 49 23 2.6 4.3 0.00 0.48 0.00 87 1011.2
20260510022019 49 315 0.9 2.6 0.00 0.48 0.00 87 1011.2
20260510021019 50 315 1.7 3.5 0.00 0.48 0.00 87 1011.3
20260510020019 50 315 2.6 3.5 0.00 0.48 0.00 86 1011.2
20260510015139 50 315 1.7 3.5 0.00 0.48 0.00 86 1011.1
20260510014019 50 315 1.7 2.6 0.00 0.48 0.00 86 1011.1
20260510013019 50 0 0.9 1.7 0.00 0.48 0.00 86 1011.1
20260510012019 50 0 1.7 3.5 0.00 0.48 0.00 86 1011.2
20260510011019 50 23 2.6 4.3 0.00 0.48 0.00 86 1011.3
20260510010019 51 23 0.9 3.5 0.00 0.48 0.00 87 1011.4
20260510005018 51 23 1.7 2.6 0.00 0.48 0.00 88 1011.4
20260510004018 51 293 1.7 2.6 0.00 0.48 0.00 87 1011.7
20260510003038 51 270 0.9 2.6 0.00 0.48 0.00 89 1011.7
20260510002038 51 270 0.9 2.6 0.00 0.48 0.00 89 1011.9
20260510001018 51 338 0.9 2.6 0.00 0.48 0.00 89 1011.9
20260510000018 51 68 0.9 2.6 0.00 0.48 0.48 88 1012.1
20260509235018 51 68 1.7 3.5 0.00 0.48 0.48 88 1012.1
20260509234018 51 90 1.7 3.5 0.00 0.48 0.48 88 1012.2
20260509233018 52 68 1.7 3.5 0.00 0.48 0.48 88 1012.2
20260509232018 52 23 2.6 5.2 0.00 0.48 0.48 87 1012.5
20260509231018 52 0 0.9 2.6 0.00 0.48 0.48 85 1012.6
20260509230018 52 0.0 0.9 0.00 0.48 0.48 87 1012.7
20260509225038 52 0.0 0.9 0.00 0.48 0.48 87 1012.7
20260509224018 52 0.0 1.7 0.00 0.48 0.48 87 1012.8
20260509223018 52 0.0 0.9 0.00 0.48 0.48 87 1012.8
20260509222018 52 0 0.9 2.6 0.00 0.48 0.48 86 1012.6
20260509221018 52 23 2.6 5.2 0.00 0.48 0.48 87 1012.5
20260509220018 52 338 2.6 5.2 0.00 0.48 0.48 86 1012.4